Date String (YYYY-MM-DD hh:mm:ss) UTC,Instrument flags,Ambient pressure (hPa),Sample flow (lpm),Bypass flow (lpm),Sample temperature (°C),Ambient temperature (°C),ASC tube jacket temperature (°C),LED temperature (°C),Box temperature (°C),Sample RH (%),Span deviation,Mass concentration (μg/m³),Mass concentration (μg/m³),Mass concentration (μg/m³)
DateTimeUTC,F1_M11,P_M11,Q1_M11,Q2_M11,T1_M11,T2_M11,T3_M11,T4_M11,T5_M11,U1_M11,ZSPAN_M11,X0_M11,X2_M11,X1_M11
2022-12-13 14:00:00,,0809.9,5.00,0.00,21.0,19.5,00.0,29.8,22.5,11.1,0000.0,0008.77,0004.50,0004.32
2022-12-13 14:01:00,,0809.9,5.00,0.00,21.0,19.2,00.0,29.8,22.5,11.1,0000.0,0008.80,0004.48,0004.30
2022-12-13 14:02:00,,0809.9,4.99,0.00,20.9,19.0,00.0,29.8,22.4,11.2,0000.0,0008.81,0004.48,0004.29
2022-12-13 14:03:00,,0809.9,4.99,0.00,20.9,18.8,00.0,29.8,22.4,11.3,0000.0,0008.52,0004.49,0004.28
2022-12-13 14:04:00,,0809.9,5.04,0.00,20.8,18.7,00.0,29.8,22.3,11.3,0000.0,0008.92,0004.50,0004.28
2022-12-13 14:05:00,,0809.9,4.98,0.00,20.8,19.4,00.0,29.7,22.4,11.3,0000.0,0008.96,0004.51,0004.27
2022-12-13 14:06:00,,0809.8,5.03,0.00,20.9,20.7,00.0,29.7,22.7,11.2,0000.0,0008.85,0004.52,0004.26
2022-12-13 14:07:00,,0809.9,4.97,0.00,21.0,21.0,00.0,29.8,22.8,11.2,0000.0,0008.23,0004.49,0004.26
2022-12-13 14:08:00,,0809.9,5.01,0.00,21.0,20.2,00.0,29.8,22.7,11.1,0000.0,0007.96,0004.46,0004.25
2022-12-13 14:09:00,,0809.9,5.00,0.00,20.9,19.6,00.0,29.8,22.5,11.2,0000.0,0007.71,0004.45,0004.24
2022-12-13 14:10:00,,0810.0,5.00,0.00,20.9,19.2,00.0,29.8,22.4,11.2,0000.0,0007.64,0004.44,0004.25
2022-12-13 14:11:00,,0810.0,4.99,0.00,20.8,18.8,00.0,29.7,22.2,11.3,0000.0,0007.54,0004.46,0004.26
2022-12-13 14:12:00,,0810.1,4.99,0.00,20.7,18.5,00.0,29.7,22.2,11.3,0000.0,0007.56,0004.48,0004.26
2022-12-13 14:13:00,,0810.1,5.01,0.00,20.7,18.5,00.0,29.7,22.1,11.3,0000.0,0007.60,0004.50,0004.27
2022-12-13 14:14:00,,0810.1,4.98,0.00,20.8,20.0,00.0,29.6,22.4,11.3,0000.0,0007.47,0004.49,0004.27
2022-12-13 14:15:00,,0810.1,5.03,0.00,20.9,21.2,00.0,29.7,22.7,11.2,0000.0,0006.56,0004.48,0004.26
2022-12-13 14:16:00,,0810.1,4.98,0.00,21.0,21.5,00.0,29.7,22.9,11.1,0000.0,0006.58,0004.49,0004.26
2022-12-13 14:17:00,,0810.0,5.02,0.00,21.0,20.7,00.0,29.7,22.7,11.1,0000.0,0006.82,0004.51,0004.27
2022-12-13 14:18:00,,0810.0,4.97,0.00,21.0,20.0,00.0,29.7,22.6,11.2,0000.0,0007.08,0004.55,0004.27
2022-12-13 14:19:00,,0810.0,5.01,0.00,20.9,19.5,00.0,29.8,22.5,11.2,0000.0,0007.50,0004.57,0004.28
2022-12-13 14:20:00,,0810.0,5.04,0.00,20.8,19.0,00.0,29.7,22.3,11.2,0000.0,0007.54,0004.59,0004.29
2022-12-13 14:21:00,,0810.0,4.95,0.00,20.8,18.6,00.0,29.7,22.2,11.2,0000.0,0007.66,0004.61,0004.30
2022-12-13 14:22:00,,0810.1,5.06,0.00,20.7,18.3,00.0,29.7,22.1,11.3,0000.0,0007.69,0004.64,0004.30
2022-12-13 14:23:00,,0810.1,4.96,0.00,20.6,18.2,00.0,29.6,21.9,11.3,0000.0,0007.69,0004.63,0004.31
2022-12-13 14:24:00,,0810.2,5.01,0.00,20.6,19.6,00.0,29.6,22.2,11.3,0000.0,0008.16,0004.66,0004.31
2022-12-13 14:25:00,,0810.2,5.04,0.00,20.8,20.9,00.0,29.6,22.6,11.2,0000.0,0008.69,0004.68,0004.32
2022-12-13 14:26:00,,0810.2,4.96,0.00,20.9,21.4,00.0,29.6,22.7,11.1,0000.0,0008.78,0004.69,0004.33
2022-12-13 14:27:00,,0810.2,5.00,0.00,20.9,20.6,00.0,29.7,22.6,11.0,0000.0,0008.96,0004.72,0004.34
2022-12-13 14:28:00,,0810.2,4.99,0.00,20.8,19.7,00.0,29.7,22.4,11.0,0000.0,0008.96,0004.73,0004.35
2022-12-13 14:29:00,,0810.2,5.03,0.00,20.7,19.1,00.0,29.7,22.2,11.1,0000.0,0008.90,0004.74,0004.36
2022-12-13 14:30:00,,0810.2,4.97,0.00,20.7,18.6,00.0,29.6,22.0,11.1,0000.0,0008.84,0004.76,0004.37
2022-12-13 14:31:00,,0810.2,5.00,0.00,20.6,18.2,00.0,29.6,21.9,11.1,0000.0,0008.91,0004.78,0004.39
2022-12-13 14:32:00,,0810.2,5.01,0.00,20.5,18.7,00.0,29.6,22.0,11.1,0000.0,0009.09,0004.80,0004.42
2022-12-13 14:33:00,,0810.3,5.01,0.00,20.6,20.2,00.0,29.6,22.3,11.1,0000.0,0009.50,0004.79,0004.43
2022-12-13 14:34:00,,0810.2,4.99,0.00,20.8,21.3,00.0,29.6,22.6,11.0,0000.0,0009.77,0004.84,0004.46
2022-12-13 14:35:00,,0810.2,5.02,0.00,20.9,21.0,00.0,29.6,22.6,11.0,0000.0,0009.56,0004.85,0004.49
2022-12-13 14:36:00,,0810.2,4.98,0.00,20.8,20.1,00.0,29.6,22.4,11.0,0000.0,0009.60,0004.88,0004.53
2022-12-13 14:37:00,,0810.2,5.01,0.00,20.7,19.4,00.0,29.6,22.2,11.1,0000.0,0010.05,0004.91,0004.56
2022-12-13 14:38:00,,0810.2,5.05,0.00,20.6,18.8,00.0,29.6,22.0,11.1,-001.3,0009.97,0004.95,0004.59
2022-12-13 14:39:00,,0810.2,4.95,0.00,20.6,18.3,00.0,29.6,21.9,11.2,0000.0,0010.32,0004.97,0004.61
2022-12-13 14:40:00,,0810.3,5.04,0.00,20.5,18.0,00.0,29.5,21.7,11.3,0000.0,0011.18,0005.00,0004.63
2022-12-13 14:41:00,,0810.3,4.96,0.00,20.5,19.2,00.0,29.5,22.0,11.3,0000.0,0011.54,0005.03,0004.65
2022-12-13 14:42:00,,0810.4,5.03,0.00,20.6,20.6,00.0,29.5,22.3,11.2,0000.0,0011.66,0005.09,0004.66
2022-12-13 14:43:00,,0810.3,4.97,0.00,20.7,21.2,00.0,29.5,22.6,11.2,0000.8,0012.09,0005.12,0004.67
2022-12-13 14:44:00,,0810.4,5.03,0.00,20.8,20.5,00.0,29.6,22.5,11.2,0000.1,0011.83,0005.15,0004.68
2022-12-13 14:45:00,,0810.3,4.97,0.00,20.7,19.6,00.0,29.6,22.2,11.2,0001.6,0011.60,0005.14,0004.68
2022-12-13 14:46:00,,0810.3,5.00,0.00,20.6,18.9,00.0,29.5,22.0,11.3,0001.3,0011.45,0005.14,0004.70
2022-12-13 14:47:00,,0810.4,5.04,0.00,20.5,18.4,00.0,29.5,21.9,11.4,0001.8,0011.11,0005.13,0004.70
2022-12-13 14:48:00,,0810.4,4.95,0.00,20.4,18.1,00.0,29.5,21.8,11.4,0001.1,0010.72,0005.15,0004.70
2022-12-13 14:49:00,,0810.4,5.06,0.00,20.5,19.4,00.0,29.4,22.0,11.4,0000.2,0010.71,0005.14,0004.70
2022-12-13 14:50:00,,0810.4,4.97,0.00,20.6,20.8,00.0,29.4,22.4,11.3,0000.4,0010.52,0005.17,0004.71
2022-12-13 14:51:00,,0810.4,4.98,0.00,20.7,21.3,00.0,29.5,22.6,11.3,0000.1,0009.79,0005.16,0004.72
2022-12-13 14:52:00,,0810.3,5.02,0.00,20.7,20.5,00.0,29.5,22.4,11.3,-000.2,0010.28,0005.16,0004.72
2022-12-13 14:53:00,,0810.3,5.01,0.00,20.7,19.6,00.0,29.5,22.2,11.3,-000.4,0010.86,0005.16,0004.73
2022-12-13 14:54:00,,0810.4,5.00,0.00,20.6,18.9,00.0,29.5,22.0,11.3,-001.1,0010.64,0005.17,0004.75
2022-12-13 14:55:00,,0810.4,4.99,0.00,20.5,18.4,00.0,29.5,21.9,11.4,-001.5,0010.98,0005.16,0004.76
2022-12-13 14:56:00,,0810.4,4.99,0.00,20.4,18.1,00.0,29.5,21.8,11.5,-001.6,0010.94,0005.20,0004.78
2022-12-13 14:57:00,,0810.4,5.01,0.00,20.5,19.4,00.0,29.4,22.0,11.5,-001.5,0011.04,0005.23,0004.79
2022-12-13 14:58:00,,0810.4,4.99,0.00,20.6,20.8,00.0,29.4,22.4,11.4,-001.5,0011.64,0005.22,0004.79
2022-12-13 14:59:00,,0810.3,5.00,0.00,20.7,21.4,00.0,29.5,22.6,11.2,-001.5,0011.47,0005.21,0004.81
